This demonstration page uses our WeatherBlox Daily Observations layout. Learn more.

Left ArrowRight Arrow

39.01783, -85.05884

Hourly Observations for April 9, 2019

Temp ( °F °C ) Dew Point ( °F °C ) Humidity (%) Winds ( mph kmh ) Pressure ( in mb ) Visibility ( mi km ) Precip ( " mm )
12:52 am 00:52 Cloudy 60 15.6 55 12.8 84 84 SSW 6 9 29.80 1009 10 16 N/A
1:52 am 01:52 Cloudy 59 15 55 12.8 87 87 SW 5 7 29.80 1009 10 16 N/A
2:52 am 02:52 Mostly Cloudy 58 14.4 55 12.8 90 90 SW 5 7 29.78 1009 10 16 N/A
3:52 am 03:52 Mostly Clear 56 13.3 53 11.7 90 90 SW 5 7 29.77 1008 9 14 N/A
4:52 am 04:52 Clear 57 13.9 55 12.8 93 93 WSW 5 7 29.77 1008 9 14 N/A
5:52 am 05:52 Clear 56 13.3 54 12.2 93 93 WSW 3 6 29.76 1008 8 13 N/A
6:52 am 06:52 Mostly Clear 55 12.8 53 11.7 93 93 WSW 5 7 29.78 1008 7 11 N/A
7:52 am 07:52 Mostly Sunny 56 13.3 53 11.7 90 90 WNW 10 17 29.79 1009 7 11 N/A
8:52 am 08:52 Partly Cloudy 59 15 48 8.9 67 67 N 14 22 29.81 1010 10 16 N/A
9:52 am 09:52 Partly Cloudy 61 16.1 41 5 48 48 N 13 20 29.83 1010 10 16 N/A
10:52 am 10:52 Partly Cloudy 64 17.8 35 1.7 34 34 NNW 16 26 29.83 1010 10 16 N/A
11:52 am 11:52 Partly Cloudy 65 18.3 36 2.2 34 34 N 10 17 29.85 1011 10 16 N/A
12:52 pm 12:52 Partly Cloudy 68 20 34 1.1 28 28 N 15 24 29.84 1010 10 16 N/A
1:26 pm 13:26 Sunny 68 20 32 undefined 26 26 NW 18 30 29.84 1010 10 16 N/A
1:52 pm 13:52 Partly Cloudy 69 20.6 32 undefined 25 25 N 10 17 29.83 1010 10 16 N/A
2:52 pm 14:52 Partly Cloudy 69 20.6 31 -0.6 24 24 NNW 14 22 29.81 1010 10 16 N/A
3:52 pm 15:52 Partly Cloudy 70 21.1 30 -1.1 23 23 N 13 20 29.80 1009 10 16 N/A
4:52 pm 16:52 Mostly Sunny 71 21.7 32 undefined 24 24 WNW 14 22 29.79 1009 10 16 N/A
5:52 pm 17:52 Mostly Sunny 70 21.1 26 -3.3 19 19 NW 15 24 29.80 1009 10 16 N/A
6:52 pm 18:52 Mostly Sunny 68 20 31 -0.6 25 25 NW 9 15 29.81 1009 10 16 N/A
7:52 pm 19:52 Mostly Sunny 64 17.8 30 -1.1 28 28 NW 9 15 29.82 1010 10 16 N/A
8:52 pm 20:52 Mostly Clear 61 16.1 32 undefined 34 34 N 7 11 29.83 1010 10 16 N/A
9:52 pm 21:52 Mostly Clear 60 15.6 33 0.6 36 36 N 6 9 29.85 1011 10 16 N/A
10:52 pm 22:52 Mostly Clear 59 15 33 0.6 38 38 N N/A 29.85 1011 10 16 N/A
11:52 pm 23:52 Mostly Clear 56 13.3 35 1.7 46 46 N N/A 29.84 1011 10 16 N/A

Powered by AerisWeather